ATLAS 5 CENTAUR DEB, 44660

Orbit data source: Space-Track

ATLAS 5 CENTAUR DEB, 44660 is space debris in HEO originally from a launch on Wed, 17 Oct 2018 UTC launched from the Air Force Eastern Test Range (AFETR). Debris objects in space refer to the collection of defunct objects orbiting the Earth. Examples of debris include non-operational satellites, rocket bodies, and fragments generated from explosions, collisions, or faulty payload assembly.

Loading next visibility...
Identifier
44660, 2018-079W
Orbit
HEO
Country
Flag of USUS
Related business
Flag of USUnited Launch Alliance/Lockheed Martin (US)
Manufacturer
ULA Decatur
Mission
Spacecraft
Bus & Motor
Unknown
Mass
Unknown
Launch date (UTC)
2018-10-17 (7 years ago)
Launch vehicle
Unknown
Launch site
Air Force Eastern Test Range (AFETR)
Object type
Payload
Rocket body
Debris
Shape & HBR
Unknown shape, 1.1 m
Radar Cross Section
RCS unknown

Expand to show TLE details & history
Last TLE update: 3 days ago

TLE from 3 days ago
0 ATLAS 5 CENTAUR DEB
1 44660U 18079W   25294.93046034 -.00000124  00000-0  00000-0 0  9994
2 44660  12.8660  43.3667 4824879 310.3412  16.6536  1.84855382 27987
Epoch: 2025-10-21T22:19Z
TLE epoch observation values (Epoch: 2025-10-21T22:19:51.773Z)
Latitude
-0.00008°
Longitude
37.75319°
Altitude
9,990.587 km
Speed
5.873 km/s
True Right ascension
02h 53m 19s
True Declination
0° 00' 00"
Sunlit
Object was in full shadow at epoch
Visualization orbit readout
Latitude
Unknown
Longitude
Unknown
Altitude
Unknown
Speed
Unknown
Apparent Right ascension
Unknown
Apparent Declination
Unknown
Sunlit
N/A
Visualization observer readout
Local Sidereal Time
08:33:54
Azimuth
Unknown
Elevation
Unknown
Doppler factor
Unknown
Orbital elements
Apogee altitude
35,200.671 km
Perigee altitude
8,136.34 km
Semi-major axis
28,046.642 km
Eccentricity
0.48249
Inclination
12.866°
RAAN
43.3667°
Arg. of periapsis
310.3412°
True anomaly
50.01223°
Mean anomaly
16.6536°
Eccentric anomaly
30.81499°
Mean motion
0.46208 °/min
Orbital period
779.08 mins
BSTAR
0
Loading maneuver chart data...
Computing Atmospheric mass density...

Documentation

Showing up to 5 results
|